Farmville, VA

8:12 PM EST on November 18, 2019 (GMT -0500)
Farmville Regional

Weather History for KFVX - October, 2019

Change the Weather History Date:

Monday, October 21, 2019

  Actual Average Record
Temperature  
Mean Temperature 55 °F -  
Max Temperature 65 °F 68 °F 87 °F (1941)
Min Temperature 46 °F 40 °F 15 °F (1952)
Degree Days  
Heating Degree Days 10    
Growing Degree Days 5 (Base 50)    
Moisture  
Dew Point 52 °F    
Average Humidity 89    
Maximum Humidity 100    
Minimum Humidity 67    
Precipitation  
Precipitation 0.00 in - - ()
Sea Level Pressure  
Sea Level Pressure 30.06 in    
Wind  
Wind Speed 2 mph ()    
Max Wind Speed 8 mph    
Max Gust Speed -    
Visibility 9.0 miles    
Events Fog    
Averages and records for this station are not official NWS values.
T = Trace of Precipitation, MM = Missing Value Source: Averaged Metar Reports

Daily Weather History Graph

Daily Weather History Graph

Search for Another Location

Airport or City:

Astronomy

Oct. 21, 2019 Rise Set
Actual Time 7:27 AM EDT 6:29 PM EDT
Civil Twilight 7:00 AM EDT 6:55 PM EDT
Nautical Twilight 6:30 AM EDT 7:25 PM EDT
Astronomical Twilight 6:00 AM EDT 7:56 PM EDT
Moon No Moon Rise 2:39 PM EDT (10/21)
Length of Visible Light 11h 54m
Length of Day
11h 01m
Waning Gibbous, 48% of the Moon is Illuminated
Oct 21
Waning Gibbous
Oct 27
New
Nov 4
First Quarter
Nov 12
Full
Nov 19
Last Quarter

Hourly Weather History & Observations

Time (EDT) Temp. Dew Point Humidity Pressure Visibility Wind Dir Wind Speed Gust Speed Precip Events Conditions
12:15 AM 56.1 °F 54.5 °F 94% 29.97 in 10.0 mi Calm Calm - N/A   Mostly Cloudy
12:35 AM 55.6 °F 54.1 °F 95% 29.98 in 10.0 mi Calm Calm - N/A   Mostly Cloudy
12:55 AM 56.3 °F 54.5 °F 94% 29.98 in 10.0 mi Calm Calm - N/A   Mostly Cloudy
1:15 AM 56.7 °F 54.5 °F 92% 29.99 in 10.0 mi Calm Calm - N/A   Overcast
1:55 AM 56.5 °F 54.9 °F 94% 29.99 in 10.0 mi Calm Calm - N/A   Overcast
2:15 AM 56.8 °F 54.7 °F 92% 29.99 in 10.0 mi Calm Calm - N/A   Overcast
2:35 AM 55.0 °F 54.5 °F 98% 29.99 in 10.0 mi Calm Calm - N/A   Overcast
2:55 AM 53.6 °F 53.2 °F 99% 29.99 in 10.0 mi Calm Calm - N/A   Scattered Clouds
3:35 AM 51.6 °F 51.4 °F 99% 29.99 in 5.0 mi Calm Calm - N/A   Clear
3:55 AM 52.3 °F 52.3 °F 100% 30.00 in 5.0 mi North 3.5 mph - N/A   Clear
4:15 AM 52.5 °F 52.0 °F 98% 30.00 in 10.0 mi Calm Calm - N/A   Clear
4:35 AM 52.7 °F 52.3 °F 99% 30.00 in 10.0 mi Calm Calm - N/A   Clear
4:55 AM 52.7 °F 52.0 °F 97% 30.01 in 10.0 mi NNE 3.5 mph - N/A   Clear
5:15 AM 52.3 °F 51.8 °F 98% 30.01 in 10.0 mi Calm Calm - N/A   Clear
5:55 AM 50.2 °F 49.5 °F 97% 30.03 in 5.0 mi Calm Calm - N/A   Clear
6:15 AM 49.3 °F 49.3 °F 100% 30.03 in 0.2 mi Calm Calm - N/A Fog Fog
6:35 AM 50.0 °F 50.0 °F 100% 30.04 in 7.0 mi Calm Calm - N/A   Scattered Clouds
6:55 AM 47.1 °F 47.1 °F 100% 30.04 in 0.8 mi Calm Calm - N/A   Mostly Cloudy
7:15 AM 46.8 °F 46.6 °F 99% 30.05 in 0.5 mi North 3.5 mph - N/A Fog Fog
7:35 AM 50.0 °F 49.8 °F 99% 30.06 in 7.0 mi North 4.6 mph - N/A   Scattered Clouds
7:55 AM 50.4 °F 50.2 °F 99% 30.06 in 7.0 mi North 3.5 mph - N/A   Clear
8:15 AM 51.1 °F 50.5 °F 98% 30.07 in 7.0 mi Calm Calm - N/A   Clear
8:35 AM 52.2 °F 51.1 °F 96% 30.08 in 5.0 mi Calm Calm - N/A   Clear
8:55 AM 52.0 °F 50.5 °F 95% 30.08 in 5.0 mi NNE 3.5 mph - N/A   Mostly Cloudy
9:15 AM 52.0 °F 50.9 °F 96% 30.09 in 7.0 mi NNE 3.5 mph - N/A   Overcast
9:35 AM 53.2 °F 50.9 °F 92% 30.10 in 10.0 mi Calm Calm - N/A   Overcast
9:55 AM 54.7 °F 52.0 °F 91% 30.10 in 10.0 mi NE 6.9 mph - N/A   Scattered Clouds
10:15 AM 56.5 °F 52.7 °F 87% 30.09 in 10.0 mi NNE 6.9 mph - N/A   Mostly Cloudy
10:35 AM 56.3 °F 52.9 °F 88% 30.09 in 10.0 mi NE 8.1 mph - N/A   Overcast
10:55 AM 55.9 °F 52.3 °F 88% 30.10 in 10.0 mi NE 8.1 mph - N/A   Overcast
11:15 AM 56.1 °F 52.3 °F 87% 30.11 in 10.0 mi ENE 6.9 mph - N/A   Overcast
11:35 AM 56.3 °F 52.3 °F 87% 30.11 in 10.0 mi NE 5.8 mph - N/A   Overcast
11:55 AM 57.2 °F 52.5 °F 84% 30.11 in 10.0 mi ENE 5.8 mph - N/A   Overcast
12:15 PM 57.6 °F 52.0 °F 82% 30.11 in 10.0 mi NNE 3.5 mph - N/A   Overcast
12:35 PM 58.1 °F 52.0 °F 80% 30.11 in 10.0 mi NE 4.6 mph - N/A   Overcast
12:55 PM 58.3 °F 51.8 °F 79% 30.11 in 10.0 mi Calm Calm - N/A   Overcast
1:15 PM 58.3 °F 52.0 °F 80% 30.11 in 10.0 mi NE 6.9 mph - N/A   Overcast
1:35 PM 59.0 °F 51.6 °F 76% 30.09 in 10.0 mi NNE 3.5 mph - N/A   Overcast
1:55 PM 62.1 °F 51.8 °F 69% 30.08 in 10.0 mi ENE 3.5 mph - N/A   Overcast
2:15 PM 62.1 °F 52.2 °F 70% 30.07 in 10.0 mi NNE 6.9 mph - N/A   Mostly Cloudy
2:35 PM 61.7 °F 52.2 °F 71% 30.06 in 10.0 mi East 4.6 mph - N/A   Scattered Clouds
2:55 PM 61.0 °F 52.2 °F 73% 30.07 in 10.0 mi East 3.5 mph - N/A   Scattered Clouds
3:15 PM 63.0 °F 52.2 °F 68% 30.06 in 10.0 mi ESE 3.5 mph - N/A   Clear
3:35 PM 63.7 °F 52.5 °F 67% 30.06 in 10.0 mi ENE 4.6 mph - N/A   Clear
3:55 PM 63.5 °F 52.3 °F 67% 30.05 in 10.0 mi East 3.5 mph - N/A   Clear
4:15 PM 62.2 °F 52.0 °F 69% 30.06 in 10.0 mi Calm Calm - N/A   Clear
4:35 PM 64.0 °F 52.7 °F 67% 30.05 in 10.0 mi East 4.6 mph - N/A   Clear
4:55 PM 63.1 °F 53.2 °F 70% 30.06 in 10.0 mi East 3.5 mph - N/A   Clear
5:15 PM 62.4 °F 53.2 °F 72% 30.05 in 10.0 mi East 4.6 mph - N/A   Clear
5:35 PM 59.9 °F 53.1 °F 78% 30.05 in 10.0 mi East 4.6 mph - N/A   Clear
5:55 PM 58.3 °F 53.1 °F 83% 30.05 in 10.0 mi Calm Calm - N/A   Clear
6:15 PM 57.7 °F 52.9 °F 84% 30.06 in 10.0 mi East 3.5 mph - N/A   Clear
6:35 PM 57.0 °F 52.7 °F 85% 30.06 in 10.0 mi Calm Calm - N/A   Clear
6:55 PM 56.3 °F 52.7 °F 88% 30.06 in 10.0 mi East 3.5 mph - N/A   Clear
7:15 PM 55.4 °F 52.7 °F 91% 30.06 in 10.0 mi East 4.6 mph - N/A   Clear
7:35 PM 55.4 °F 52.7 °F 91% 30.06 in 10.0 mi East 3.5 mph - N/A   Clear
7:55 PM 54.5 °F 52.5 °F 93% 30.07 in 10.0 mi Calm Calm - N/A   Clear
8:15 PM 55.0 °F 52.7 °F 92% 30.07 in 10.0 mi Calm Calm - N/A   Clear
8:35 PM 54.9 °F 52.7 °F 92% 30.06 in 10.0 mi Calm Calm - N/A   Mostly Cloudy
8:55 PM 54.0 °F 52.7 °F 95% 30.07 in 10.0 mi Calm Calm - N/A   Overcast
9:15 PM 54.3 °F 52.9 °F 95% 30.07 in 10.0 mi Calm Calm - N/A   Overcast
9:35 PM 54.5 °F 53.1 °F 95% 30.07 in 10.0 mi Calm Calm - N/A   Overcast
9:55 PM 54.1 °F 53.1 °F 96% 30.07 in 10.0 mi Calm Calm - N/A   Overcast
10:15 PM 54.5 °F 53.6 °F 97% 30.07 in 10.0 mi Calm Calm - N/A   Overcast
10:35 PM 54.9 °F 53.8 °F 96% 30.07 in 10.0 mi Calm Calm - N/A   Overcast
10:55 PM 55.4 °F 54.1 °F 96% 30.08 in 10.0 mi South 3.5 mph - N/A   Overcast
11:15 PM 55.6 °F 54.5 °F 96% 30.08 in 10.0 mi South 3.5 mph - N/A   Overcast
11:35 PM 55.8 °F 54.5 °F 96% 30.07 in 10.0 mi South 3.5 mph - N/A   Overcast
11:55 PM 55.8 °F 54.5 °F 96% 30.06 in 10.0 mi SSE 3.5 mph - N/A   Overcast